Tracking 31027 objects as of 18-Jul-2025
HD Live streaming from Space Station
objects crossing your sky now

QIANFAN-6

Track QIANFAN-6 now!
10-day predictions
QIANFAN-6 is classified as:


NORAD ID: 60384
Int'l Code: 2024-140F
Perigee: 1,067.5 km
Apogee: 1,084.3 km
Inclination: 89.0 °
Period: 106.6 minutes
Semi major axis: 7446 km
RCS: Unknown
Launch date: August 6, 2024
Source: People's Republic of China (PRC)
Launch site: Taiyaun Space Center, China (TSC)
Your satellite tracking list
GLOBALSTAR M046
Track 1 satellite(s)




NASA's NSSDC Master Catalog

Two Line Element Set (TLE):
1 60384U 24140F   25199.60778816  .00000133  00000-0  18756-3 0  9998
2 60384  88.9848 314.2125 0011246 257.2049 102.7846 13.50956433 47636
Source of the keplerian elements: AFSPC